User: anonymous   Login
Location: Unspecified
(0.0000°N, 0.0000°E)
Time: 11:03:01
(UTC+00:00)
Language:

LIBERTAD 1 - Orbit

View from above orbital plane
View from above orbital plane
View from above satellite
View from above satellite

Ground track
Ground track

The orbit data is extracted from the following two-line orbital elements,

1 31128U 07012M   17351.51896895  .00000177  00000-0  48504-4 0  9993
2 31128  98.1046 294.5332 0096698 353.5444   6.4501 14.55931044566109
Epoch (UTC): 17 December 2017 12:27:18
Eccentricity: 0.0096698
inclination: 98.1046°
perigee height: 638 km
apogee height: 775 km
right ascension of ascending node: 294.5332°
argument of perigee: 353.5444°
revolutions per day: 14.55931044
mean anomaly at epoch: 6.4501°
orbit number at epoch: 56610

The dashed part of the orbit path shows where the satellite is in the earth's shadow,  

DLR